FW1036 Weather Reports


Display with metric or nautical units.
time (UTC)temp
F
wind
direction
speed
MPH
gust
MPH
rain 1hr
in
rain 24hr
in
rain mn
in
humidity
%
barometer
mb
20260508063005 42 213 2.0 5.0 0.00 0.00 0.00 75 1010.7
20260508061503 43 238 4.0 7.0 0.00 0.00 0.00 75 1010.9
20260508060109 43 220 3.0 6.0 0.00 0.00 0.00 75 1010.9
20260508054558 43 225 3.0 7.0 0.00 0.00 0.00 75 1010.9
20260508053056 43 229 3.0 6.0 0.00 0.00 0.00 75 1011.2
20260508051554 43 216 3.0 5.0 0.00 0.00 0.00 73 1011.2
20260508050053 43 223 3.0 7.0 0.00 0.00 0.00 73 1011.4
20260508044546 43 219 2.0 6.0 0.00 0.00 0.00 73 1011.3
20260508043045 42 212 2.0 6.0 0.00 0.00 0.00 71 1011.4
20260508041540 42 223 3.0 6.0 0.00 0.00 0.00 71 1011.5
20260508040036 43 219 3.0 8.0 0.00 0.00 0.00 70 1011.5
20260508034536 43 207 2.0 8.0 0.00 0.00 0.00 70 1011.4
20260508033036 42 242 1.0 4.0 0.00 0.00 0.00 73 1011.3
20260508031535 41 175 4.0 8.0 0.00 0.00 0.00 75 1011.4
20260508030039 40 163 4.0 7.0 0.00 0.00 0.00 77 1011.5
20260508024538 39 150 1.0 3.0 0.00 0.00 0.00 79 1011.7
20260508023034 39 150 2.0 3.0 0.00 0.00 0.00 79 1011.7
20260508021544 39 133 2.0 4.0 0.00 0.00 0.00 77 1011.5
20260508020032 39 132 2.0 4.0 0.00 0.00 0.00 76 1011.3
20260508014532 41 142 2.0 5.0 0.00 0.00 0.00 74 1011.5
20260508013039 41 140 6.0 9.0 0.00 0.00 0.00 73 1011.3
20260508011533 41 171 6.0 10.0 0.00 0.00 0.00 73 1011.4
20260508010033 42 136 8.0 13.0 0.00 0.00 0.00 72 1011.3
20260508004537 42 148 4.0 8.0 0.00 0.00 0.00 72 1011.2
20260508003029 42 128 6.0 8.0 0.00 0.00 0.00 70 1011.0
20260508001528 43 125 4.0 8.0 0.00 0.00 0.00 69 1011.1
20260508000028 43 125 4.0 9.0 0.00 0.00 0.00 66 1010.9
20260507234526 43 85 4.0 9.0 0.00 0.00 0.00 66 1011.0
20260507233035 44 111 5.0 10.0 0.00 0.00 0.00 64 1010.9
20260507231525 43 93 6.0 10.0 0.00 0.00 0.00 66 1011.0
20260507230026 44 82 7.0 10.0 0.00 0.00 0.00 67 1011.1
20260507224523 45 84 7.0 9.0 0.00 0.00 0.00 67 1010.9
20260507223023 45 73 5.0 9.0 0.00 0.00 0.00 69 1011.1
20260507221522 44 54 7.0 10.0 0.00 0.00 0.00 68 1011.1
20260507220022 46 70 6.0 9.0 0.00 0.00 0.00 70 1011.1
20260507214526 44 56 4.0 11.0 0.00 0.00 0.00 70 1011.1
20260507213020 44 68 6.0 11.0 0.00 0.00 0.00 70 1011.1
20260507211518 45 77 8.0 12.0 0.00 0.00 0.00 70 1011.1
20260507210032 42 82 6.0 10.0 0.00 0.00 0.00 71 1011.3
20260507204516 43 84 6.0 10.0 0.00 0.00 0.00 72 1011.3
20260507203015 45 40 9.0 12.0 0.00 0.00 0.00 73 1011.4
20260507201514 43 61 5.0 10.0 0.00 0.00 0.00 72 1011.4
20260507200018 43 56 7.0 10.0 0.00 0.00 0.00 74 1011.7
20260507194517 42 36 4.0 9.0 0.00 0.00 0.00 68 1011.9
20260507193014 44 52 10.0 13.0 0.00 0.00 0.00 68 1011.5
20260507191511 44 48 9.0 13.0 0.00 0.00 0.00 67 1011.7
20260507190012 44 41 8.0 13.0 0.00 0.00 0.00 69 1011.8
20260507184516 43 46 9.0 13.0 0.00 0.00 0.00 66 1012.0
20260507183009 44 53 10.0 14.0 0.00 0.00 0.00 67 1011.9
20260507181508 43 57 8.0 14.0 0.00 0.00 0.00 71 1012.0
20260507180007 43 60 8.0 11.0 0.00 0.00 0.00 71 1011.9
20260507174507 43 81 9.0 14.0 0.00 0.00 0.00 69 1011.9
20260507173006 44 42 11.0 15.0 0.00 0.00 0.00 68 1011.9
20260507171504 44 57 6.0 11.0 0.00 0.00 0.00 68 1012.0
20260507170005 45 94 6.0 11.0 0.00 0.00 0.00 68 1011.8
20260507164504 45 67 3.0 12.0 0.00 0.00 0.00 68 1011.7
20260507163003 47 94 3.0 7.0 0.00 0.00 0.00 66 1011.9
20260507161502 49 22 3.0 9.0 0.00 0.00 0.00 56 1011.9
20260507160001 49 304 2.0 11.0 0.00 0.00 0.00 56 1011.9
20260507154607 49 294 1.0 5.0 0.00 0.00 0.00 58 1012.0
20260507153159 49 284 1.0 4.0 0.00 0.00 0.00 56 1012.0
20260507151558 49 277 4.0 15.0 0.00 0.00 0.00 58 1011.8
20260507150059 49 25 0.0 5.0 0.00 0.00 0.00 59 1012.1
20260507144554 48 263 2.0 5.0 0.00 0.00 0.00 57 1012.1
20260507143053 48 173 0.0 5.0 0.00 0.00 0.00 62 1012.1
20260507141544 47 267 2.0 4.0 0.00 0.00 0.00 60 1012.2
20260507140041 46 275 2.0 8.0 0.00 0.00 0.00 62 1012.3
20260507134539 46 15 2.0 6.0 0.00 0.00 0.00 64 1012.4
20260507133035 44 295 1.0 6.0 0.00 0.00 0.00 66 1012.5
20260507131531 43 92 1.0 4.0 0.00 0.00 0.00 69 1012.4
20260507130037 42 82 0.0 0.0 0.00 0.00 0.00 71 1012.6
20260507124529 41 82 0.0 4.0 0.00 0.00 0.00 77 1012.6
20260507123020 40 17 1.0 3.0 0.00 0.00 0.00 78 1012.6
20260507121519 39 5 3.0 4.0 0.00 0.00 0.00 80 1012.8
20260507120021 39 351 2.0 3.0 0.00 0.00 0.00 81 1012.7
20260507114514 38 350 0.0 0.0 0.00 0.00 0.00 81 1012.7
20260507113010 37 350 0.0 0.0 0.00 0.00 0.00 82 1012.7
20260507111509 36 355 0.0 2.0 0.00 0.00 0.00 83 1012.5
20260507110008 36 355 0.0 3.0 0.00 0.00 0.00 83 1012.2
20260507104504 35 355 0.0 3.0 0.00 0.00 0.00 83 1012.1
20260507103001 35 316 0.0 0.0 0.00 0.00 0.00 83 1012.1
20260507101501 35 316 0.0 0.0 0.00 0.00 0.00 83 1012.1
20260507100100 35 311 0.0 0.0 0.00 0.00 0.00 82 1012.1
20260507094600 35 311 0.0 0.0 0.00 0.00 0.00 83 1011.9
20260507093108 35 311 0.0 2.0 0.00 0.00 0.00 83 1012.0
20260507091558 35 311 0.0 0.0 0.00 0.00 0.00 83 1012.0
20260507090057 35 311 0.0 2.0 0.00 0.00 0.00 83 1011.9
20260507084557 34 355 0.0 0.0 0.00 0.00 0.00 82 1011.9
20260507083055 34 355 0.0 0.0 0.00 0.00 0.00 81 1012.0
20260507081554 35 355 0.0 0.0 0.00 0.00 0.00 80 1012.1
20260507080105 34 355 0.0 0.0 0.00 0.00 0.00 81 1012.1
20260507074552 33 355 0.0 1.0 0.00 0.00 0.00 82 1012.2
20260507073050 33 355 0.0 1.0 0.00 0.00 0.00 82 1012.3
20260507071606 34 355 0.0 0.0 0.00 0.00 0.00 80 1012.3
20260507070044 35 355 0.0 0.0 0.00 0.00 0.00 78 1012.3
20260507064541 36 355 1.0 4.0 0.00 0.00 0.00 77 1012.4